SUSat (42730 NORAD) Tracking and Keplerian Element Data

This shows tracking and keplerian element data for the satellite.

Feedback or suggestion? Click here.




ElementValue
Catalog42730
NameSUSat
Epoch Orbit7531
Epoch Day263.37582557
Epoch Year2018
RAAN229.6224
Inclination51.6328
Eccentricity9E-05
Argument of Perigee146.2447
Mean Anonmoly213.861
Mean Motion15.75104994
Decay Rate0.00028546
L11 42730U 98067MK 18263.37582557 .00028546 00000-0 19055-3 0 9996
L22 42730 51.6328 229.6224 0000900 146.2447 213.8610 15.75104994 75319

Live tracking and technical data element details for SUSat (NORAD 42730). SUSat can be tracked NOW for your location showing map with azimuth and elevation plus other details from your city location.

Track the satellite on the map from your city or location and see movement details for azimuth, elevation, latitude, longitude, range, height, and movement on the map or in text.







IsCatalogInMostPopularTable: catalog: 42730, numindb: 128
Update: records affected: 1



GetName: 42730 SUSat

Hit Count: updated at: Tue, 25 Sep 2018 14:33:09 GMT